IZ4UFQ-10 Weather Reports


Display with metric or nautical units.
time (UTC)temp
F
wind
direction
speed
MPH
gust
MPH
rain 1hr
in
rain 24hr
in
rain mn
in
humidity
%
barometer
mb
20260903182408 82 243 0.0 0.0 0.00 0.00 0.00 53 1016.8
20260903181908 82 243 0.0 0.0 0.00 0.00 0.00 53 1016.8
20260903181407 83 243 0.0 0.0 0.00 0.00 0.00 52 1016.8
20260903180907 84 243 0.0 0.0 0.00 0.00 0.00 51 1016.7
20260903180407 84 243 0.0 0.0 0.00 0.00 0.00 50 1016.7
20260903175906 85 243 0.0 0.0 0.00 0.00 0.00 49 1016.7
20260903175406 85 243 0.0 0.0 0.00 0.00 0.00 48 1016.6
20260903174906 86 243 0.0 0.0 0.00 0.00 0.00 47 1016.6
20260903174406 87 243 0.0 0.0 0.00 0.00 0.00 46 1016.5
20260903173905 88 243 0.0 0.0 0.00 0.00 0.00 44 1016.5
20260903173405 89 243 0.0 0.0 0.00 0.00 0.00 42 1016.4
20260903172905 90 242 0.0 0.0 0.00 0.00 0.00 39 1016.5
20260903172404 90 239 0.0 0.0 0.00 0.00 0.00 38 1016.4
20260903171904 91 235 0.0 0.0 0.00 0.00 0.00 38 1016.3
20260903171404 91 235 0.0 0.0 0.00 0.00 0.00 37 1016.3
20260903170904 92 234 0.0 0.0 0.00 0.00 0.00 36 1016.3
20260903170403 92 234 0.0 0.0 0.00 0.00 0.00 37 1016.2
20260903165903 92 233 0.0 0.0 0.00 0.00 0.00 36 1016.1
20260903165403 92 234 0.0 0.0 0.00 0.00 0.00 36 1016.1
20260903164902 92 233 0.0 0.0 0.00 0.00 0.00 36 1016.1
20260903164402 92 234 0.0 0.0 0.00 0.00 0.00 36 1016.1
20260903163902 93 234 0.0 0.0 0.00 0.00 0.00 35 1016.1
20260903163402 93 234 0.0 0.0 0.00 0.00 0.00 35 1016.1
20260903162901 93 233 0.0 0.0 0.00 0.00 0.00 34 1016.1
20260903162401 93 234 0.0 0.0 0.00 0.00 0.00 34 1016.1
20260903161901 93 233 0.0 0.0 0.00 0.00 0.00 35 1016.1
20260903161400 93 234 0.0 0.0 0.00 0.00 0.00 35 1016.1
20260903160900 92 233 0.0 0.0 0.00 0.00 0.00 35 1016.0
20260903160400 92 233 0.0 0.0 0.00 0.00 0.00 36 1016.0
20260903155859 92 234 0.0 0.0 0.00 0.00 0.00 36 1015.9
20260903155359 92 236 0.0 0.0 0.00 0.00 0.00 37 1015.9
20260903154859 91 266 0.0 0.0 0.00 0.00 0.00 38 1016.0
20260903154359 91 310 0.0 0.0 0.00 0.00 0.00 38 1016.0
20260903153858 91 291 0.0 0.0 0.00 0.00 0.00 38 1016.2
20260903153358 92 291 0.0 0.0 0.00 0.00 0.00 37 1016.2
20260903152858 92 289 0.0 0.0 0.00 0.00 0.00 37 1016.3
20260903152357 92 183 0.0 0.0 0.00 0.00 0.00 37 1016.4
20260903151857 93 178 0.0 0.0 0.00 0.00 0.00 36 1016.3
20260903151357 93 239 0.0 0.0 0.00 0.00 0.00 37 1016.5
20260903150857 93 239 0.0 0.0 0.00 0.00 0.00 37 1016.5
20260903150356 92 237 0.0 0.0 0.00 0.00 0.00 37 1016.5
20260903145856 92 239 0.0 0.0 0.00 0.00 0.00 37 1016.6
20260903145356 92 239 0.0 0.0 0.00 0.00 0.00 38 1016.6
20260903144855 91 303 0.0 0.0 0.00 0.00 0.00 38 1016.6
20260903144355 91 326 0.0 0.0 0.00 0.00 0.00 38 1016.7
20260903143855 91 17 0.0 0.0 0.00 0.00 0.00 38 1016.7
20260903143355 91 28 0.0 0.0 0.00 0.00 0.00 38 1016.8
20260903142854 91 52 0.0 0.0 0.00 0.00 0.00 38 1016.8
20260903142354 91 54 0.0 0.0 0.00 0.00 0.00 39 1016.8
20260903141854 91 20 0.0 0.0 0.00 0.00 0.00 39 1016.8
20260903141353 92 48 0.0 0.0 0.00 0.00 0.00 38 1016.8
20260903140853 93 285 0.0 0.0 0.00 0.00 0.00 38 1016.9
20260903140353 93 243 0.0 0.0 0.00 0.00 0.00 38 1016.9
20260903135853 92 248 0.0 0.0 0.00 0.00 0.00 39 1016.9
20260903135352 91 284 0.0 0.0 0.00 0.00 0.00 40 1017.0
20260903134852 91 318 0.0 0.0 0.00 0.00 0.00 40 1017.0
20260903134352 91 320 0.0 0.0 0.00 0.00 0.00 40 1017.0
20260903133851 91 12 0.0 0.0 0.00 0.00 0.00 40 1017.0
20260903133351 91 57 0.0 0.0 0.00 0.00 0.00 41 1017.1
20260903132851 90 147 0.0 0.0 0.00 0.00 0.00 41 1017.0
20260903132351 90 149 0.0 0.0 0.00 0.00 0.00 40 1017.0
20260903131850 90 147 0.0 0.0 0.00 0.00 0.00 41 1017.1
20260903131350 90 147 0.0 0.0 0.00 0.00 0.00 41 1017.2
20260903130850 89 148 0.0 0.0 0.00 0.00 0.00 42 1017.2
20260903130349 89 88 0.0 0.0 0.00 0.00 0.00 42 1017.2
20260903125849 89 87 0.0 0.0 0.00 0.00 0.00 43 1017.2
20260903125349 89 73 0.0 0.0 0.00 0.00 0.00 42 1017.3
20260903124849 89 78 0.0 0.0 0.00 0.00 0.00 43 1017.3
20260903124348 90 12 0.0 0.0 0.00 0.00 0.00 43 1017.4
20260903123848 90 341 0.0 0.0 0.00 0.00 0.00 42 1017.4
20260903123348 90 335 0.0 0.0 0.00 0.00 0.00 43 1017.3
20260903122847 89 245 0.0 0.0 0.00 0.00 0.00 42 1017.3
20260903122347 89 127 0.0 0.0 0.00 0.00 0.00 43 1017.3
20260903121847 89 130 0.0 0.0 0.00 0.00 0.00 43 1017.3
20260903121347 89 151 0.0 0.0 0.00 0.00 0.00 43 1017.4
20260903120846 89 156 0.0 0.0 0.00 0.00 0.00 44 1017.6
20260903120346 88 166 0.0 0.0 0.00 0.00 0.00 44 1017.6
20260903115846 88 4 0.0 0.0 0.00 0.00 0.00 44 1017.7
20260903115345 88 330 0.0 0.0 0.00 0.00 0.00 45 1017.6
20260903114845 88 4 0.0 0.0 0.00 0.00 0.00 45 1017.7
20260903114345 88 15 0.0 0.0 0.00 0.00 0.00 46 1017.7
20260903113844 88 4 0.0 0.0 0.00 0.00 0.00 45 1017.7
20260903113344 88 27 0.0 0.0 0.00 0.00 0.00 46 1017.7
20260903112844 88 39 0.0 0.0 0.00 0.00 0.00 46 1017.8
20260903112344 88 359 0.0 0.0 0.00 0.00 0.00 46 1017.8
20260903111843 88 29 0.0 0.0 0.00 0.00 0.00 47 1017.9
20260903111343 88 17 0.0 0.0 0.00 0.00 0.00 47 1017.9
20260903110843 88 26 0.0 0.0 0.00 0.00 0.00 47 1018.0
20260903110343 87 21 0.0 0.0 0.00 0.00 0.00 47 1018.0
20260903105842 87 19 0.0 0.0 0.00 0.00 0.00 47 1018.1
20260903105342 87 18 0.0 0.0 0.00 0.00 0.00 48 1018.1
20260903104842 87 21 0.0 0.0 0.00 0.00 0.00 48 1018.2
20260903104341 86 14 0.0 0.0 0.00 0.00 0.00 49 1018.2
20260903103841 86 41 0.0 0.0 0.00 0.00 0.00 47 1018.3
20260903103341 87 359 0.0 0.0 0.00 0.00 0.00 48 1018.4
20260903102840 87 295 0.0 0.0 0.00 0.00 0.00 48 1018.4
20260903102340 87 329 0.0 0.0 0.00 0.00 0.00 48 1018.5
20260903101840 87 280 0.0 0.0 0.00 0.00 0.00 49 1018.6
20260903101340 86 254 0.0 0.0 0.00 0.00 0.00 50 1018.7
20260903100839 86 254 0.0 0.0 0.00 0.00 0.00 50 1018.8
20260903100339 85 252 0.0 0.0 0.00 0.00 0.00 52 1018.8
20260903095839 85 320 0.0 0.0 0.00 0.00 0.00 52 1019.0
20260903095338 85 4 0.0 0.0 0.00 0.00 0.00 52 1019.0
20260903094838 85 11 0.0 0.0 0.00 0.00 0.00 52 1019.0
20260903094338 85 301 0.0 0.0 0.00 0.00 0.00 53 1019.0
20260903093838 84 41 0.0 0.0 0.00 0.00 0.00 54 1019.0
20260903093337 84 41 0.0 0.0 0.00 0.00 0.00 54 1019.1
20260903092837 84 41 0.0 0.0 0.00 0.00 0.00 53 1019.1
20260903092337 84 349 0.0 0.0 0.00 0.00 0.00 54 1019.0
20260903091836 84 345 0.0 0.0 0.00 0.00 0.00 55 1019.1
20260903091336 83 345 0.0 0.0 0.00 0.00 0.00 56 1019.1
20260903090836 83 345 0.0 0.0 0.00 0.00 0.00 56 1019.1
20260903090336 83 316 0.0 0.0 0.00 0.00 0.00 56 1019.1
20260903085835 83 316 0.0 0.0 0.00 0.00 0.00 56 1019.2
20260903085335 83 317 0.0 0.0 0.00 0.00 0.00 55 1019.2
20260903084835 83 298 0.0 0.0 0.00 0.00 0.00 55 1019.2
20260903084334 83 283 0.0 0.0 0.00 0.00 0.00 56 1019.1
20260903083834 83 283 0.0 0.0 0.00 0.00 0.00 56 1019.1
20260903083334 83 283 0.0 0.0 0.00 0.00 0.00 56 1019.0
20260903082834 82 276 0.0 0.0 0.00 0.00 0.00 56 1019.0
20260903082333 82 278 0.0 0.0 0.00 0.00 0.00 56 1019.0
20260903081833 82 278 0.0 0.0 0.00 0.00 0.00 56 1018.9
20260903081333 82 277 0.0 0.0 0.00 0.00 0.00 56 1018.8
20260903080832 82 288 0.0 0.0 0.00 0.00 0.00 57 1018.8
20260903080332 81 288 0.0 0.0 0.00 0.00 0.00 58 1018.8
20260903075832 81 290 0.0 0.0 0.00 0.00 0.00 59 1018.8
20260903075332 80 290 0.0 0.0 0.00 0.00 0.00 60 1018.8
20260903074831 80 291 0.0 0.0 0.00 0.00 0.00 60 1018.8
20260903074331 80 289 0.0 0.0 0.00 0.00 0.00 61 1018.8
20260903073831 80 289 0.0 0.0 0.00 0.00 0.00 61 1018.8
20260903073330 80 289 0.0 0.0 0.00 0.00 0.00 60 1018.8
20260903072830 80 267 0.0 0.0 0.00 0.00 0.00 61 1018.7
20260903072330 79 253 0.0 0.0 0.00 0.00 0.00 60 1018.7
20260903071830 80 239 0.0 0.0 0.00 0.00 0.00 60 1018.6
20260903071329 80 227 0.0 0.0 0.00 0.00 0.00 61 1018.6
20260903070829 79 227 0.0 0.0 0.00 0.00 0.00 62 1018.7
20260903070329 78 227 0.0 0.0 0.00 0.00 0.00 63 1018.6
20260903065828 78 227 0.0 0.0 0.00 0.00 0.00 63 1018.7
20260903065328 78 226 0.0 0.0 0.00 0.00 0.00 64 1018.7
20260903064828 78 226 0.0 0.0 0.00 0.00 0.00 65 1018.7
20260903064327 78 226 0.0 0.0 0.00 0.00 0.00 64 1018.7
20260903063827 78 226 0.0 0.0 0.00 0.00 0.00 65 1018.7
20260903063327 77 226 0.0 0.0 0.00 0.00 0.00 65 1018.6
20260903062827 77 226 0.0 0.0 0.00 0.00 0.00 65 1018.6
20260903062326 77 226 0.0 0.0 0.00 0.00 0.00 68 1018.6
20260903061826 76 226 0.0 0.0 0.00 0.00 0.00 69 1018.4
20260903061326 76 226 0.0 0.0 0.00 0.00 0.00 68 1018.4
20260903060826 75 226 0.0 0.0 0.00 0.00 0.00 69 1018.3
20260903060325 75 226 0.0 0.0 0.00 0.00 0.00 69 1018.3
20260903055825 75 226 0.0 0.0 0.00 0.00 0.00 69 1018.3
20260903055325 75 226 0.0 0.0 0.00 0.00 0.00 70 1018.3
20260903054824 74 226 0.0 0.0 0.00 0.00 0.00 70 1018.2
20260903054324 74 226 0.0 0.0 0.00 0.00 0.00 71 1018.2
20260903053824 74 226 0.0 0.0 0.00 0.00 0.00 71 1018.1
20260903053323 73 226 0.0 0.0 0.00 0.00 0.00 72 1018.1
20260903052823 73 226 0.0 0.0 0.00 0.00 0.00 72 1018.0
20260903052323 73 226 0.0 0.0 0.00 0.00 0.00 73 1018.0
20260903051823 73 226 0.0 0.0 0.00 0.00 0.00 72 1018.0
20260903051322 73 226 0.0 0.0 0.00 0.00 0.00 73 1017.9
20260903050822 73 224 0.0 0.0 0.00 0.00 0.00 73 1017.8
20260903050322 72 215 0.0 0.0 0.00 0.00 0.00 73 1017.8
20260903045821 72 215 0.0 0.0 0.00 0.00 0.00 73 1017.8
20260903045321 72 214 0.0 0.0 0.00 0.00 0.00 73 1017.8
20260903044821 72 214 0.0 0.0 0.00 0.00 0.00 74 1017.7
20260903044321 72 214 0.0 0.0 0.00 0.00 0.00 74 1017.7
20260903043820 72 214 0.0 0.0 0.00 0.00 0.00 74 1017.6
20260903043320 72 214 0.0 0.0 0.00 0.00 0.00 74 1017.6
20260903042820 72 214 0.0 0.0 0.00 0.00 0.00 74 1017.6
20260903042319 72 214 0.0 0.0 0.00 0.00 0.00 74 1017.5
20260903041819 72 214 0.0 0.0 0.00 0.00 0.00 73 1017.5
20260903041319 72 213 0.0 0.0 0.00 0.00 0.00 73 1017.4
20260903040819 72 212 0.0 0.0 0.00 0.00 0.00 74 1017.3
20260903040318 72 219 0.0 0.0 0.00 0.00 0.00 74 1017.3
20260903035818 72 220 0.0 0.0 0.00 0.00 0.00 74 1017.3
20260903035318 72 219 0.0 0.0 0.00 0.00 0.00 74 1017.3
20260903034817 72 218 0.0 0.0 0.00 0.00 0.00 74 1017.3
20260903034317 73 213 0.0 0.0 0.00 0.00 0.00 73 1017.4
20260903033817 73 213 0.0 0.0 0.00 0.00 0.00 73 1017.4
20260903033317 73 213 0.0 0.0 0.00 0.00 0.00 73 1017.4
20260903032816 73 202 0.0 0.0 0.00 0.00 0.00 73 1017.4
20260903032316 73 251 0.0 0.0 0.00 0.00 0.00 73 1017.3
20260903031816 73 222 0.0 0.0 0.00 0.00 0.00 72 1017.4
20260903031315 73 216 0.0 0.0 0.00 0.00 0.00 72 1017.3
20260903030815 73 217 0.0 0.0 0.00 0.00 0.00 72 1017.3
20260903030315 74 217 0.0 0.0 0.00 0.00 0.00 71 1017.3
20260903025814 74 216 0.0 0.0 0.00 0.00 0.00 72 1017.3
20260903025314 74 216 0.0 0.0 0.00 0.00 0.00 72 1017.3
20260903024814 74 216 0.0 0.0 0.00 0.00 0.00 72 1017.2
20260903024314 73 216 0.0 0.0 0.00 0.00 0.00 72 1017.2
20260903023813 73 202 0.0 0.0 0.00 0.00 0.00 72 1017.3
20260903023313 73 189 0.0 0.0 0.00 0.00 0.00 72 1017.2
20260903022813 73 241 0.0 0.0 0.00 0.00 0.00 72 1017.2
20260903022312 73 209 0.0 0.0 0.00 0.00 0.00 72 1017.2
20260903021812 73 209 0.0 0.0 0.00 0.00 0.00 72 1017.3
20260903021312 74 216 0.0 0.0 0.00 0.00 0.00 72 1017.2
20260903020812 74 287 0.0 0.0 0.00 0.00 0.00 72 1017.3
20260903020311 74 189 0.0 0.0 0.00 0.00 0.00 72 1017.3
20260903015811 74 238 0.0 0.0 0.00 0.00 0.00 72 1017.3
20260903015311 74 228 0.0 0.0 0.00 0.00 0.00 73 1017.3
20260903014810 74 233 0.0 0.0 0.00 0.00 0.00 73 1017.2
20260903014310 74 215 0.0 0.0 0.00 0.00 0.00 73 1017.2
20260903013810 73 215 0.0 0.0 0.00 0.00 0.00 73 1017.2
20260903013310 73 215 0.0 0.0 0.00 0.00 0.00 73 1017.2
20260903012809 74 223 0.0 0.0 0.00 0.00 0.00 73 1017.2
20260903012309 74 196 0.0 0.0 0.00 0.00 0.00 73 1017.2
20260903011809 74 213 0.0 0.0 0.00 0.00 0.00 73 1017.2
20260903011308 74 223 0.0 0.0 0.00 0.00 0.00 73 1017.1
20260903010808 74 220 0.0 0.0 0.00 0.00 0.00 73 1017.1
20260903010308 74 216 0.0 0.0 0.00 0.00 0.00 73 1017.1
20260903005808 74 245 0.0 0.0 0.00 0.00 0.00 73 1017.2
20260903005307 74 240 0.0 0.0 0.00 0.00 0.00 73 1017.2
20260903004807 74 237 0.0 0.0 0.00 0.00 0.00 73 1017.1
20260903004307 74 256 0.0 0.0 0.00 0.00 0.00 73 1017.1
20260903003806 74 213 0.0 0.0 0.00 0.00 0.00 73 1017.0
20260903003306 74 197 0.0 0.0 0.00 0.00 0.00 73 1017.0
20260903002806 74 214 0.0 0.0 0.00 0.00 0.00 73 1017.0
20260903002306 74 214 0.0 0.0 0.00 0.00 0.00 73 1017.0
20260903001805 74 209 0.0 0.0 0.00 0.00 0.00 73 1017.0
20260903001305 74 221 0.0 0.0 0.00 0.00 0.00 73 1017.0
20260903000805 75 204 0.0 0.0 0.00 0.00 0.00 73 1017.0
20260903000304 74 216 0.0 0.0 0.00 0.00 0.00 73 1017.0
20260902235804 74 204 0.0 0.0 0.00 0.00 0.00 73 1017.1
20260902235305 74 207 0.0 0.0 0.00 0.00 0.00 73 1017.1
20260902234804 75 207 0.0 0.0 0.00 0.00 0.00 73 1017.1
20260902234303 75 207 0.0 0.0 0.00 0.00 0.00 72 1017.1
20260902233803 75 207 0.0 0.0 0.00 0.00 0.00 72 1017.1
20260902233303 75 207 0.0 0.0 0.00 0.00 0.00 72 1017.2
20260902232802 75 207 0.0 0.0 0.00 0.00 0.00 72 1017.3
20260902232306 75 207 0.0 0.0 0.00 0.00 0.00 71 1017.3
20260902231802 75 207 0.0 0.0 0.00 0.00 0.00 71 1017.3
20260902231302 75 207 0.0 0.0 0.00 0.00 0.00 71 1017.3
20260902230801 75 207 0.0 0.0 0.00 0.00 0.00 71 1017.2
20260902230301 75 207 0.0 0.0 0.00 0.00 0.00 70 1017.2
20260902225801 75 207 0.0 0.0 0.00 0.00 0.00 70 1017.2
20260902225300 76 206 0.0 0.0 0.00 0.00 0.00 70 1017.2
20260902224800 76 206 0.0 0.0 0.00 0.00 0.00 69 1017.1
20260902224300 76 206 0.0 0.0 0.00 0.00 0.00 69 1017.1
20260902223800 76 206 0.0 0.0 0.00 0.00 0.00 69 1017.1
20260902223259 76 219 0.0 0.0 0.00 0.00 0.00 68 1017.0
20260902222759 76 220 0.0 0.0 0.00 0.00 0.00 67 1017.0
20260902222259 76 220 0.0 0.0 0.00 0.00 0.00 67 1017.0
20260902221758 76 220 0.0 0.0 0.00 0.00 0.00 67 1016.9
20260902221258 77 220 0.0 0.0 0.00 0.00 0.00 67 1016.9
20260902220758 77 220 0.0 0.0 0.00 0.00 0.00 66 1016.9
20260902220258 77 220 0.0 0.0 0.00 0.00 0.00 66 1016.9
20260902215757 77 219 0.0 0.0 0.00 0.00 0.00 66 1016.8
20260902215257 77 220 0.0 0.0 0.00 0.00 0.00 66 1016.8
20260902214757 77 220 0.0 0.0 0.00 0.00 0.00 66 1016.8
20260902214256 76 220 0.0 0.0 0.00 0.00 0.00 66 1016.8
20260902213756 76 229 0.0 0.0 0.00 0.00 0.00 66 1016.8
20260902213256 76 233 0.0 0.0 0.00 0.00 0.00 67 1016.7
20260902212755 76 275 0.0 0.0 0.00 0.00 0.00 67 1016.6
20260902212255 76 275 0.0 0.0 0.00 0.00 0.00 67 1016.6
20260902211755 76 285 0.0 0.0 0.00 0.00 0.00 67 1016.6
20260902211255 75 285 0.0 0.0 0.00 0.00 0.00 67 1016.6
20260902210754 75 285 0.0 0.0 0.00 0.00 0.00 67 1016.6
20260902210254 75 285 0.0 0.0 0.00 0.00 0.00 66 1016.6
20260902205754 76 285 0.0 0.0 0.00 0.00 0.00 66 1016.6
20260902205253 76 298 0.0 0.0 0.00 0.00 0.00 64 1016.6
20260902204753 76 300 0.0 0.0 0.00 0.00 0.00 63 1016.6
20260902204253 77 335 0.0 0.0 0.00 0.00 0.00 62 1016.7
20260902203753 77 336 0.0 0.0 0.00 0.00 0.00 62 1016.6
20260902203252 78 336 0.0 0.0 0.00 0.00 0.00 61 1016.5
20260902202752 78 336 0.0 0.0 0.00 0.00 0.00 61 1016.5
20260902202252 78 336 0.0 0.0 0.00 0.00 0.00 61 1016.4
20260902201751 78 336 0.0 0.0 0.00 0.00 0.00 61 1016.5
20260902201251 79 336 0.0 0.0 0.00 0.00 0.00 60 1016.5
20260902200751 79 336 0.0 0.0 0.00 0.00 0.00 58 1016.4
20260902200251 79 336 0.0 0.0 0.00 0.00 0.00 58 1016.4
20260902195750 79 336 0.0 0.0 0.00 0.00 0.00 58 1016.3
20260902195250 79 345 0.0 0.0 0.00 0.00 0.00 57 1016.3
20260902194750 79 212 0.0 0.0 0.00 0.00 0.00 57 1016.1
20260902194249 80 212 0.0 0.0 0.00 0.00 0.00 56 1016.0
20260902193749 80 211 0.0 0.0 0.00 0.00 0.00 56 1016.0
20260902193249 80 211 0.0 0.0 0.00 0.00 0.00 56 1015.9
20260902192748 80 210 0.0 0.0 0.00 0.00 0.00 55 1015.9
20260902192248 80 210 0.0 0.0 0.00 0.00 0.00 55 1015.8
20260902191748 80 210 0.0 0.0 0.00 0.00 0.00 55 1015.8
20260902191248 81 210 0.0 0.0 0.00 0.00 0.00 54 1015.8
20260902190747 81 198 0.0 0.0 0.00 0.00 0.00 54 1015.8
20260902190247 81 216 0.0 0.0 0.00 0.00 0.00 54 1015.8
20260902185747 81 215 0.0 0.0 0.00 0.00 0.00 54 1015.7
20260902185246 81 214 0.0 0.0 0.00 0.00 0.00 54 1015.7
20260902184746 81 216 0.0 0.0 0.00 0.00 0.00 53 1015.7
20260902184246 81 196 0.0 0.0 0.00 0.00 0.00 53 1015.6
20260902183746 81 206 0.0 0.0 0.00 0.00 0.00 53 1015.6
20260902183245 81 200 0.0 0.0 0.00 0.00 0.00 53 1015.6